Погода в Сосновке

Россия / Кемеровская область (Кузбасс)     54°17′30″N   85°43′33″E
темп.,
°C
ветер,
м/с
пор.,
м/с
влажн.,
%
обл.,
%
осадки,
мм/ч
давл.,
гПа
погр.,
м
15 апреля, чт
чт1501:00+1зюз3898100 0.1 1026376
04:00+1юз2499100 0.0 1026148
07:00+1юз2299100 0.0 102786
10:00+3юз2397100 0.0 1027189
13:00+5ююз2388100 0.0 1026461
16:00+4юз3595100 0.0 1025390
19:00+3ююз3798100 0.0 1024304
22:00+2юз41098100 0.0 1024347
16 апреля, пт
пт1601:00+2ююз41098100 0.0 1023318
04:00+2юз51198100 0.0 1021336
07:00+3ююз51298100 0.1 1021369
10:00+4ююз5129699 0.0 1019369
13:00+7юз6159498 0.0 1018529
16:00+11юз7137948 0.0 1015859
19:00+11юз61380100 0.0 1014886
22:00+7з3109376 0.3 1015309
17 апреля, сб
сб1701:00+1с5892100 0.3 1019599
04:000ссв598992 0.1 1020697
07:00−2ссв588995 0.3 1021571
10:00−1ссв567024 0.0 1022672
13:00+1ссв44505 0.0 1020829
16:00+3ссв224595 0.0 10181016
19:00+3ссз22495 0.0 1016849
22:00−1зсз11685 0.0 101710
18 апреля, вс
вс1801:00−1зюз217268 0.0 101730
04:00−2з2771100 0.0 1018232
07:00−1юз2669100 0.0 1019290
10:00+2зюз3451100 0.0 1019775
13:00+4юз3550100 0.0 10181283
16:00+4юз3451100 0.0 10161359
19:00+4ю2561100 0.0 1014262
22:00+2ю41087100 0.1 1012476
19 апреля, пн
пн1901:00+4ю71785100 0.5 1006666
04:00+5ююз71877100 0.0 1001656
07:00+5ююз61582100 0.0 998624
10:00+1зюз41298100 3.3 1001612
13:000з71279100 5.6 10041024
16:000з7116497 0.1 10081405
19:00−2з696995 0.3 10121418
22:00−4з3777100 0.1 1015804